Location: Seattle
(47.6064°N, 122.3308°W)
Time: 08:26:10
(UTC-07:00)

RS-15 - Pass Details

Date: 08 April 2023
Orbit: 1885 x 2159 km, 64.8° (Epoch: 01 June)

Event Time Altitude Azimuth Distance (km) Brightness Sun altitude
Rises 02:45:29 0° 316° (NW) 5,582 10.6 -31.4°
Reaches altitude 10° 02:51:08 10° 296° (WNW) 4,522 9.9 -30.9°
Enters shadow 02:55:58 15° 271° (W) 4,092 9.4 -30.5°
